Location: Observatory Park - Geauga Park District
(41.5832°N, 81.0716°W)
Time: 02:26:17
(UTC-04:00)

Envisat - Pass Details

Date: 26 September 2021
Orbit: 764 x 766 km, 98.2° (Epoch: 23 October)

Event Time Altitude Azimuth Distance (km) Brightness Sun altitude
Rises 06:01:22 0° 20° (NNE) 3,237 6.7 -14.7°
Reaches altitude 10° 06:03:49 10° 28° (NNE) 2,306 6.0 -14.3°
Maximum altitude 06:08:36 40° 98° (E) 1,107 4.4 -13.4°
Drops below altitude 10° 06:13:20 10° 168° (SSE) 2,290 5.5 -12.5°
Sets 06:15:45 0° 175° (S) 3,211 6.2 -12.1°
